Погода в Магадане

Погода в Магадане : погода сейчас, прогноз погоды и архив. Всё, что Вы хотите узнать о погоде в Магадане!

Хотите узнать прогноз погоды в Магадане? Тогда Вам сюда: Погода в Магадане

Поиск расширенной информации на нашем сайте:

Другие новости

Новости СМИ2

Главная страница сайта

Новости сайта

03.07.2017

Напоминаем, что на нашем специализированном сайте Метеоцентр.Азия вы можете получить высокодетализированные автоматические прогнозы погоды по пунктам России, СНГ и мира в авиационном формате (включающие направление и скорость ветра, видимость, явления погоды, количество и форму облачности, нижнюю и верхнюю границу облачности).

Рекомендуем: Дисконтная программа в магазине www.minisoft.com.ua.

Погода в Магадане - сегодня

Время (UTC), дата Ветер
(°,м/с) 
Видим.   Явления Облачность Т
(°С)
Тd
(°С)
f(%) Тe
(°С)
Pmin
(гПа)
dP
(гПа)
Po
(мм)
O2
(г/м3)
Тmin Tmax R s Состояние
почвы
18 13.06.18 240 (ЮЗ) 10 км  слаб. морось  10/10 200 м 
[St]
+5.4 +5.1 98 +5  1022.5  0.1  756  298           
21 13.06.18 250 (З) 20000 м  {морось, туман}  9/9 300 м 
[St]
+6.4 +5.3 93 +6  1023.2  0.7  757  297  +4.8    0.0    влажная 
03 14.06.18 280 (З) 20000 м    9/8 300 м средняя 
[St|Ac trans]
+7.7 +5.2 84 +6  1023.6  0.4  757  296           
06 14.06.18 260 (З) 20000 м    9/9 300 м кучево-дожд. 
[Cb calv]
+5.9 +4.1 88 +4  1023.7  0.1  757  298           
12 14.06.18 240 (ЮЗ) 20000 м    10/10 300 м 
[St]
+4.3 +2.8 90 +2  1023.1  -0.3  756  300           
15 14.06.18 240 (ЮЗ) 20000 м    10/10 300 м 
[St]
+4.4 +2.6 88 +3  1022.6  -0.5  756  299           
18 14.06.18 230 (ЮЗ) 20000 м    10/10 300 м 
[St]
+4.7 +2.6 86 +4  1022.1  -0.5  756  299           
00 15.06.18 240 (ЮЗ) 20000 м    10/10 300 м 
[St]
+6.6 +3.6 81 +6  1020.5  -0.9  755  296           
03 15.06.18 270 (З) 20000 м    8/8 300 м 
[St]
+7.9 +4 76 +6  1019.2  -1.2  754  295           
06 15.06.18 260 (З) 20000 м    9/6 300 м средняя, верхняя 
[St|Ac trans|Ci fib]
+7.5 +4.4 81 +6  1018.1  -1.1  753  295           
12 15.06.18 230 (ЮЗ) 20000 м    10/10 300 м 
[St]
+5.7 +4.4 91 +4  1016.5  -0.7  752  296           
15 15.06.18 240 (ЮЗ) 20000 м    9/9 300 м 
[St]
+5.4 +4.2 92 +4  1015.6  -0.9  751  296           
18 15.06.18 230 (ЮЗ) 10 км  слаб. морось  10/10 300 м 
[St]
+5.1 +4.1 93 +5  1014.7  -0.9  750  296           
21 15.06.18 270 (З) 10 км  слаб. морось  10/10 300 м 
[St]
+5.5 +4.5 93 +6  1014.1  -0.6  750  295  +4.9    0.0    влажная 
03 16.06.18 240 (ЮЗ) 4000 м  дымка  10/10 300 м 
[St]
+6.6 +5.4 92 +5  1013.4  -0.5  749  294           
06 16.06.18 230 (ЮЗ) 0500 м  слаб. морось{туман}  ?/?  
+5.9 +5.5 97 +4  1013  -0.4  749  295           
12 16.06.18 230 (ЮЗ) 4000 м  дымка{морось, туман}  10/10 200 м 
[St]
+4.5 +4.1 97 +3  1013.5  0.1  749  296           
15 16.06.18 220 (ЮЗ) 4000 м  дымка  10/10 200 м 
[St]
+4.6 +4.3 98 +4  1013.7  0.2  750  296           
18 16.06.18 240 (ЮЗ) 0500 м  туман  н/о 
+4.5 +4.3 99 +5  1014  0.2  750  296           
03 17.06.18 260 (З) 4000 м  дымка  9/9 200 м 
[St]
+6.3 +4.7 89 +4  1015.3  0.5  751  295           
06 17.06.18 270 (З) 4000 м  дымка  9/9 200 м кучево-дожд. 
[Cb calv]
+6.2 +4.7 90 +4  1015  -0.3  751  295           
12 17.06.18 250 (З) 4000 м  дымка  10/10 200 м 
[St]
+5.2 +4.7 97 +4  1015.5  0.6  751  296           
15 17.06.18 240 (ЮЗ) 4000 м  дымка  10/10 200 м 
[St]
+5.4 +4.7 95 +4  1015.3  -0.2  751  296           
18 17.06.18 240 (ЮЗ) 20000 м    10/10 200 м 
[St]
+5.4 +4.7 95 +4  1015.1  -0.2  751  296           
00 18.06.18 260 (З) 20000 м    8/1 300 м средняя, верхняя 
[St|Ac trans|Ci fib]
+8.7 +5.7 81 +7  1015.2  0.1  751  292           
Время (UTC), дата Ветер
(°,м/с) 
Видим.   Явления Облачность Т
(°С)
Тd
(°С)
f(%) Тe
(°С)
Pmin
(гПа)
dP
(гПа)
Po
(мм)
O2
(г/м3)
Тmin Tmax R s Состояние
почвы

Для получения пояснительной информации подведите курсор к названию столбца.

ПОГОДА в Магадане - архив

Всё, что Вы хотите узнать о погоде в Магадане - удобно и подробно!

Выберите нужную дату (начиная с 1 января 2015* года) и нажмите кнопку "Найти".
Будут отображены архивные сводки погоды по пункту Магадан, начиная с указанной даты.


Отображать данные в формате CSV (для использования в таблицах Excel)


Внимание! Наш архив погоды предназначен исключительно для личного некоммерческого использования в познавательных целях. Если Вам необходимы официальные справки о состоянии погоды (для производственных, юридических, коммерческих и т.п. целей), обращайтесь в органы Росгидромета.

*Примечание: данная дата относится к архиву по метеостанциям СССР (Россия, СНГ, Балтия).
Архив по метеостанциям Зарубежной Европы и Азии (кроме Китая) хранится 10 дней, по другим регионам земного шара (Китай, Африка, Америка, Австралия, Океания) - 1 день.

Магадан - район местоположения метеостанции


Название, широта, долгота, высота метеостанции:
Магадан (город) 59.6°ш. 150.8°д. 116 м над ур. моря [Российская Федерация]

Дополнительная информация

В oтличие oт бoльшинства пoгoдных сайтoв мы публикуем пoдрoбную метеoинфoрмацию в детальнoм прoфессиoнальнoм фoрмате.

Характеристики температуры и влажнoсти вoздуха измеряются на высoте 2 м в тени вдали oт зданий и деревьев.
Скoрoсть ветра измеряется на высoте 10 м (на урoвне рoста челoвека скoрoсть ветра ниже в 1.5-2 раза). Если метеoстанция нахoдится в гoрoде или в лесу, тo скoрoсть ветра занижена на 2-4 м/с пo сравнению с oткрытым местoм. Скoрoсть ветра над акватoриями крупных рек и oзёр, а также на вершинах хoлмoв на 2-5 м/с выше, чем в oбычных услoвиях.
Атмoсфернoе давление в разных тoчках местнoсти мoжет значительнo oтличаться oт давления на метеoстанции, в зависимoсти oт услoвий рельефа (при пoдъёме на 10 м давление пoнижается примернo на 1 мм рт.ст.).